Location: Starry Hill Observatory
(46.8582°N, 122.3590°W)
Time: 20:41:49
(UTC-07:00)

Daily predictions for brighter satellites

Satellite Brightness Start Highest point End
(mag) Time Altitude Azimuth Time Altitude Azimuth Time Altitude Azimuth
ALOS 3.9 20:39:16 10° SSW 20:43:34 37° W 20:47:55 10° NNW
Cosmos 1455 4.0 20:44:21 10° SW 20:47:52 36° WNW 20:51:24 10° N
CZ-4C R/B 4.1 20:43:00 10° NNW 20:48:43 29° NNE 20:55:03 10° E
Cosmos 1733 Rocket 3.1 20:47:29 10° N 20:51:59 79° E 20:56:26 10° SSE
USA 229 DEB 4.3 20:46:16 10° S 20:52:09 32° ESE 20:58:09 10° NE
USA 229 4.3 20:46:24 10° S 20:52:16 32° ESE 20:58:15 10° NE
Cosmos 1992 Rocket 4.0 20:48:26 10° S 20:53:38 68° ESE 20:58:52 10° NNE
Cosmos 1862 3.3 20:50:28 10° N 20:54:31 82° E 20:58:34 10° S
Meteor 2-10 Rocket 4.2 20:51:48 10° SSE 20:57:13 42° E 21:02:36 10° NNE
Helios 1A 3.0 20:54:40 10° SSE 20:58:55 85° ENE 21:03:12 10° NNW
Cosmos 2026 Rocket 4.3 20:54:44 10° NNW 21:00:57 75° W 21:07:04 10° S
Cosmos 2219 Rocket 3.9 21:01:54 10° ESE 21:04:02 12° E 21:06:10 10° ENE
Okean 2 Rocket 4.5 21:01:20 10° NNE 21:04:59 23° ENE 21:08:18 11° ESE
Cosmos 1862 Rocket 3.6 21:00:40 10° S 21:05:06 73° E 21:09:37 10° NNE
USA 186 3.1 21:08:25 10° SSW 21:11:06 36° W 21:13:58 10° NNW
USA 267 3.4 21:08:59 10° NE 21:15:34 85° NW 21:22:08 10° WSW
SAR-Lupe-4 4.1 21:13:24 10° S 21:16:57 61° WSW 21:20:32 10° NNW
Meteor 1-26 Rocket 4.5 21:12:17 10° SSE 21:17:47 52° E 21:23:25 10° NNE
Cosmos 1939 Rocket 2.9 21:16:14 10° SSE 21:20:16 85° WSW 21:24:16 10° NNW
Cosmos 2263 Rocket 3.0 21:16:13 10° NW 21:21:34 48° WSW 21:26:53 10° S
Cosmos 968 Rocket 3.5 21:18:36 10° NNW 21:23:50 84° WSW 21:29:03 10° SSE
Abrixas rocket 2.5 21:21:33 10° W 21:24:50 64° N 21:27:47 12° E
Cosmos 1825 4.3 21:22:30 10° NNW 21:25:47 28° W 21:29:04 10° SSW
Cosmos 1703 Rocket 3.9 21:21:38 10° SSE 21:25:52 47° E 21:30:06 10° NNE
Terra 3.9 21:24:22 10° E 21:26:35 13° ENE 21:28:49 10° NNE
Meteor 1-29 3.0 21:25:31 10° NNE 21:29:02 83° WNW 21:32:28 10° SSW
CZ-4B DEB 3.7 21:28:05 10° S 21:31:00 44° W 21:33:57 10° NNW
Cosmos 2322 Rocket 3.4 21:31:18 10° SW 21:36:39 45° NW 21:42:05 10° NNE
Cosmos 2237 4.4 21:31:47 10° S 21:37:18 51° ESE 21:42:49 10° NE
Lacrosse 4 Rocket 4.2 21:35:21 10° WNW 21:37:26 13° WSW 21:39:30 10° SW
Helios 1B rocket 3.1 21:33:45 10° N 21:37:48 58° WNW 21:41:50 10° SSW
Atlas Centaur 2 4.0 21:36:36 10° SW 21:41:31 21° S 21:44:38 16° SSE
Cosmos 2360 Rocket 2.2 21:38:24 10° SSW 21:44:03 89° WNW 21:49:47 10° NNE
Envisat 4.0 21:39:38 10° S 21:44:30 46° W 21:49:25 10° NNW
MetOp-B 4.2 21:40:39 17° SSE 21:44:47 64° ENE 21:50:06 10° N
COSMOS 2428 2.9 21:41:21 10° S 21:46:45 47° ESE 21:52:11 10° NE
Cosmos 1867 4.4 21:42:30 10° NW 21:47:41 45° WSW 21:52:16 13° S
Cosmos 2266 Rocket 4.1 21:43:45 10° N 21:50:04 87° W 21:56:19 11° S
Cosmos 2221 Rocket 3.5 21:46:52 12° S 21:50:52 64° E 21:55:17 10° NNE
YAOGAN 11 4.1 21:48:43 21° SSE 21:51:30 67° ENE 21:55:48 10° N
USA 234 3.4 21:46:49 18° SE 21:51:48 66° SW 21:58:20 10° NW
H-2A R/B 2.7 21:49:47 21° ESE 21:52:22 36° ENE 21:56:51 10° N
Cosmos 1606 3.6 21:52:07 26° ESE 21:52:51 28° E 21:56:08 10° NNE
ATLAS 5 CENTAUR R/B 3.4 21:47:37 10° NW 21:53:11 40° WSW 21:58:49 11° S
Cosmos 1844 3.9 21:49:23 10° NNW 21:55:02 60° ENE 21:58:22 24° SE
NOAA 11 4.2 21:52:40 18° SSE 21:56:53 83° ENE 22:02:24 10° NNW
Meteor 1-25 Rocket 4.2 21:55:38 10° N 22:01:15 90° E 22:05:20 19° S
Cosmos 2322 3.9 21:56:26 10° SSW 22:02:09 77° WNW 22:07:53 10° NNE
ARGOS 3.1 22:00:31 23° SSE 22:03:55 73° ENE 22:09:19 10° N
MOS 1-B Rocket 3.8 22:00:06 22° SSE 22:03:58 71° ENE 22:09:33 10° N
ERS-1 Rocket 3.4 22:02:02 14° S 22:06:20 59° WSW 22:11:19 10° NNW
SeaSat 1 2.6 22:04:32 27° SE 22:07:07 63° ENE 22:12:01 10° NNW
SL-16 R/B 4.3 22:02:50 10° WSW 22:07:47 30° NW 22:12:45 10° N
H-2A R/B 3.2 22:08:08 25° E 22:09:27 30° ENE 22:13:17 10° N
YAOGAN 6 4.0 22:07:06 13° SSW 22:09:59 35° W 22:13:20 10° NNW
Meteor 1-20 Rocket 4.2 22:04:58 10° NNW 22:10:35 86° W 22:14:27 21° S
Cosmos 2208 Rocket 4.5 22:13:58 29° SSE 22:15:57 41° ESE 22:20:55 10° NE
Cosmos 1244 Rocket 4.5 22:11:05 10° N 22:17:21 74° E 22:21:02 26° SSE
SL-08 RB Rocket 3.6 22:17:33 33° SSE 22:19:36 81° ENE 22:24:09 10° NNW
SPOT 5 2.8 22:18:28 27° S 22:21:01 78° WSW 22:25:36 10° NNW
Cosmos 2237 Rocket 2.9 22:22:04 31° ESE 22:22:50 32° ESE 22:27:48 10° NE
Cosmos 1844 Rocket 2.8 22:17:36 10° NNW 22:23:09 69° WSW 22:26:06 28° S
Cosmos 2333 4.1 22:18:36 10° SSW 22:24:20 80° ESE 22:30:08 10° NNE
Cosmos 2278 Rocket 2.4 22:19:20 10° NNW 22:24:57 58° ENE 22:27:20 33° ESE
Cosmos 2333 Rocket 2.5 22:23:51 30° SSE 22:26:10 45° ESE 22:31:39 10° NE
Cosmos 1300 Rocket 4.1 22:24:48 10° N 22:28:55 40° ENE 22:29:37 37° E
Cosmos 1553 Rocket 4.2 22:26:20 31° SSE 22:29:00 50° E 22:34:58 10° NNE
Iridium 4 Rocket 3.9 22:25:44 10° NNE 22:29:30 32° E 22:29:42 32° E
Meteor 2-6 Rocket 4.3 22:25:54 25° S 22:29:32 70° E 22:35:27 10° NNE
Cosmos 1898 Rocket 4.0 22:30:05 10° NNW 22:35:06 47° ENE 22:36:41 36° ESE
ASTEX 1 3.6 22:34:28 41° SE 22:35:52 55° E 22:40:44 10° N
NOSS 3-1 (C) 3.3 22:30:25 10° SSW 22:36:07 63° ESE 22:42:35 10° NE
CZ-4C R/B 2.9 22:31:19 10° NW 22:38:19 78° NE 22:42:12 33° SE
Okean 1-7 4.1 22:34:38 11° SSW 22:38:36 45° WNW 22:42:52 10° N
USA 245 4.4 22:36:24 25° S 22:39:29 57° WSW 22:44:04 10° NNW
SPOT 1/Viking Rocket 3.6 22:37:50 34° S 22:40:11 75° WSW 22:45:26 10° NNW
USA 229 DEB 4.1 22:35:56 10° SW 22:42:43 64° NW 22:49:42 10° NE
USA 229 4.1 22:36:02 10° SW 22:42:50 65° NW 22:49:48 10° NE
Okean 2 Rocket 4.3 22:39:00 10° NNW 22:43:12 39° W 22:45:42 21° SSW
Cosmos 1782 3.3 22:41:34 30° SSW 22:43:22 59° WNW 22:47:20 10° N
Cosmos 2219 Rocket 2.0 22:43:11 21° SSW 22:47:00 80° ESE 22:52:40 10° NNE
TRAILBLAZER 4.4 22:44:26 22° SSW 22:47:19 83° SE 22:51:55 10° NE
Cosmos 1633 2.5 22:43:56 10° NNW 22:47:37 76° W 22:47:52 71° SW
Landsat 7 3.7 22:47:12 49° SSE 22:48:29 89° ENE 22:53:17 10° NNW
Cosmos 2084 3.3 22:46:26 10° NW 22:50:15 63° SW 22:50:26 62° SW
SWAS 4.4 22:46:52 10° NNW 22:51:13 78° WSW 22:51:49 63° S
NOSS 3-1 (A) 3.4 22:49:49 28° SSW 22:52:53 61° ESE 22:59:20 10° NE
Cosmos 1602 3.6 22:49:22 10° N 22:53:14 84° W 22:53:25 79° SSW
ATLAS 2AS CENTAUR R/B 4.2 22:55:31 22° E 22:55:31 22° E 23:00:34 10° ENE
Cosmos 1378 Rocket 4.4 22:56:21 37° ENE 22:56:21 37° ENE 23:00:01 10° NNE
Cosmos 1346 Rocket 2.6 22:57:35 85° SE 22:57:39 86° ESE 23:01:40 10° NNE
USA 267 4.4 22:52:06 10° NE 22:58:11 43° NNW 23:04:17 10° W
S3M 3.9 22:57:44 39° S 23:00:14 80° E 23:06:30 10° N
Abrixas rocket 3.6 22:58:25 10° WNW 23:00:28 34° W 23:00:28 34° W
Terra 1.7 23:02:47 62° SSE 23:03:37 88° ENE 23:08:25 10° NNW
Meteor 2-11 Rocket 4.3 23:06:55 46° S 23:08:48 76° E 23:14:55 10° NNE
deb Chang Zheng 4 3.4 23:04:39 10° NNE 23:09:04 74° ESE 23:09:05 74° ESE
Okean 3 3.9 23:11:26 47° ENE 23:11:26 47° ENE 23:14:52 10° NNE
Cosmos 468 Rocket 4.1 23:10:50 55° ESE 23:11:00 56° ESE 23:16:12 10° NNE
Meteor 1-27 Rocket 3.7 23:11:23 40° SSW 23:13:31 79° WNW 23:19:07 10° N
ATLAS CENTAUR R/B 3.7 23:18:47 13° ENE 23:18:47 13° ENE 23:19:22 10° NE
CARTOSAT-1 3.6 23:17:11 64° SW 23:17:26 66° W 23:21:46 10° NNW
CZ-4B R/B 3.5 23:13:33 10° NNE 23:18:01 56° E 23:18:01 56° E
ATLAS 3B R/B 3.6 23:12:23 10° NNW 23:18:55 41° NE 23:22:22 24° E
Cosmos 2369 Rocket 4.3 23:15:32 10° N 23:19:17 18° NE 23:22:20 12° ENE
Geosat 3.9 23:15:21 10° NNE 23:20:22 66° ESE 23:20:27 66° ESE
Spot 4 3.7 23:20:41 70° ESE 23:20:59 73° ENE 23:25:45 10° N
Cosmos 2297 3.7 23:15:35 10° NNW 23:21:19 72° ENE 23:22:22 58° ESE
IGS 5A 3.7 23:23:46 59° W 23:23:46 59° W 23:27:52 10° NNW
Cosmos 1745 Rocket 4.3 23:23:50 10° NNW 23:30:04 61° W 23:32:13 40° SSW
COSMOS 2428 4.3 23:26:05 10° WSW 23:31:11 33° NW 23:36:21 10° NNE
H-2A R/B 3.3 23:30:25 26° SW 23:31:50 31° W 23:36:12 10° NNW
Okean 1 Rocket 3.3 23:27:52 10° NNW 23:32:16 62° W 23:32:19 62° W
CZ-4 R/B 3.7 23:28:36 10° NNE 23:33:26 90° NE 23:33:41 81° SSW
Cosmos 1455 Rocket 4.3 23:30:38 10° N 23:34:11 32° ENE 23:34:11 32° ENE
Cosmos 1674 Rocket 4.3 23:34:44 43° W 23:35:18 46° WNW 23:39:29 10° N
Cosmos 2298 Rocket 4.1 23:30:40 10° NNW 23:35:58 66° WSW 23:36:30 62° SW
Cosmos 1980 3.9 23:37:04 34° SW 23:39:30 66° WNW 23:45:09 10° NNE
Cosmos 371 Rocket 4.1 23:42:58 41° ENE 23:42:58 41° ENE 23:46:34 10° NNE
Cosmos 2285 Rocket 3.9 23:43:12 61° SE 23:43:56 66° ESE 23:50:16 10° NNE
SeaSat 1 4.2 23:44:19 20° WSW 23:45:00 21° WSW 23:48:43 10° WNW
Cosmos 1536 3.9 23:41:24 10° NNW 23:44:50 40° WNW 23:44:50 40° WNW
H-2A R/B 3.4 23:45:15 29° W 23:45:25 29° W 23:49:16 10° NW
SL-16 R/B 2.2 23:45:55 60° E 23:45:55 60° E 23:51:18 10° NNE
DELTA 2 DEB (DPAF) 4.4 23:47:39 64° WNW 23:47:39 64° WNW 23:51:50 10° NNW
Cosmos 1340 4.2 23:49:42 30° NNE 23:49:42 30° NNE 23:51:49 10° NNE
NOSS 0 Rocket 4.4 23:44:04 21° SW 23:48:07 58° WNW 23:54:12 10° NNE
Cosmos 1937 Rocket 3.7 23:46:51 10° NNW 23:52:00 57° WSW 23:52:08 56° WSW
